YC0TBU-11 Weather Reports


time (UTC)temp
C
wind
direction
speed
KPH
gust
KPH
rain 1hr
cm
rain 24hr
cm
rain mn
cm
humidity
%
barometer
mb
20260509235324 36 0.0 0.0 0.00 0.00 0.00 42 1010.8
20260509232329 36 0.0 0.0 0.00 0.00 0.00 43 1010.6
20260509225307 36 0.0 0.0 0.00 0.00 0.00 44 1010.7
20260509222307 36 0.0 0.0 0.00 0.00 0.00 44 1010.3
20260509215307 36 0.0 0.0 0.00 0.00 0.00 44 1010.2
20260509212307 36 0.0 0.0 0.00 0.00 0.00 44 1009.9
20260509205307 36 0.0 0.0 0.00 0.00 0.00 44 1010.1
20260509202307 36 0.0 0.0 0.00 0.00 0.00 45 1010.3
20260509195307 36 0.0 0.0 0.00 0.00 0.00 44 1010.4
20260509192307 36 0.0 0.0 0.00 0.00 0.00 45 1010.6
20260509185307 36 0.0 0.0 0.00 0.00 0.00 46 1011.0
20260509182307 36 0.0 0.0 0.00 0.00 0.00 46 1011.7
20260509175307 36 0.0 0.0 0.00 0.00 0.00 46 1012.0
20260509172307 36 0.0 0.0 0.00 0.00 0.00 46 1012.2
20260509165307 35 0.0 0.0 0.00 0.00 0.00 46 1012.4
20260509162312 36 0.0 0.0 0.00 0.00 0.00 46 1012.3
20260509155250 36 0.0 0.0 0.00 0.00 0.00 44 1012.2
20260509152251 39 0.0 0.0 0.00 0.00 0.00 44 1012.2
20260509145251 37 0.0 0.0 0.00 0.00 0.00 44 1012.3
20260509142142 36 0.0 0.0 0.00 0.00 0.00 45 1012.0
20260509135142 36 0.0 0.0 0.00 0.00 0.00 46 1012.0
20260509132142 36 0.0 0.0 0.00 0.00 0.00 45 1011.6
20260509125142 35 0.0 0.0 0.00 0.00 0.00 46 1011.3
20260509122142 35 0.0 0.0 0.00 0.00 0.00 45 1011.2
20260509115142 35 0.0 0.0 0.00 0.00 0.00 47 1010.8
20260509112142 36 0.0 0.0 0.00 0.00 0.00 43 1010.5
20260509105141 39 0.0 0.0 0.00 0.00 0.00 39 1009.8
20260509102142 40 0.0 0.0 0.00 0.00 0.00 37 1009.3
20260509095142 40 0.0 0.0 0.00 0.00 0.00 36 1009.1
20260509092147 40 0.0 0.0 0.00 0.00 0.00 36 1009.0
20260509085125 42 0.0 0.0 0.00 0.00 0.00 34 1008.4
20260509082124 41 0.0 0.0 0.00 0.00 0.00 35 1008.5
20260509075124 39 0.0 0.0 0.00 0.00 0.00 40 1008.8
20260509072124 40 0.0 0.0 0.00 0.00 0.00 38 1009.1
20260509065124 41 0.0 0.0 0.00 0.00 0.00 34 1009.3
20260509062124 41 0.0 0.0 0.00 0.00 0.00 33 1009.6
20260509055130 41 0.0 0.0 0.00 0.00 0.00 33 1009.7
20260509052108 41 0.0 0.0 0.00 0.00 0.00 34 1010.2
20260509045107 40 0.0 0.0 0.00 0.00 0.00 35 1010.6
20260509042108 39 0.0 0.0 0.00 0.00 0.00 36 1011.1
20260509035107 40 0.0 0.0 0.00 0.00 0.00 36 1011.5
20260509032107 38 0.0 0.0 0.00 0.00 0.00 38 1011.9
20260509025107 38 0.0 0.0 0.00 0.00 0.00 40 1012.0
20260509022107 37 0.0 0.0 0.00 0.00 0.00 42 1012.2
20260509015107 36 0.0 0.0 0.00 0.00 0.00 44 1012.3
20260509012113 36 0.0 0.0 0.00 0.00 0.00 44 1012.4
20260509005050 36 0.0 0.0 0.00 0.00 0.00 45 1012.1
20260509002050 36 0.0 0.0 0.00 0.00 0.00 44 1011.8